Location: Llanberis
(53.1167°N, 4.1500°W)
Time: 13:59:38
(UTC+00:00)

Daily predictions for brighter satellites

Satellite Brightness Start Highest point End
(mag) Time Altitude Azimuth Time Altitude Azimuth Time Altitude Azimuth
Timation 2 Rocket 4.4 21:02:44 10° NW 21:09:14 71° WSW 21:15:57 10° SSE
Cosmos 1975 3.7 21:05:27 10° N 21:09:16 37° ENE 21:13:03 10° SE
Cosmos 2026 Rocket 4.4 21:04:19 10° N 21:10:17 49° ENE 21:16:18 10° SSE
Cosmos 389 Rocket 3.3 21:07:22 10° NNW 21:10:45 48° W 21:14:09 10° S
Cosmos 1503 Rocket 4.1 21:10:31 10° S 21:15:44 64° ESE 21:21:03 10° NNE
CZ-4B R/B 2.0 21:12:35 10° N 21:15:45 56° WNW 21:18:50 10° SSW
CZ-4C R/B 4.0 21:10:09 10° NW 21:16:01 39° NNE 21:23:06 10° E
Cosmos 1933 Rocket 4.2 21:12:19 10° NNW 21:16:44 59° W 21:21:07 10° S
BREEZE-M (TANK) 4.2 21:12:59 10° WSW 21:17:15 63° SSE 21:34:44 10° E
ERS-1 Rocket 3.2 21:13:14 10° SSE 21:18:11 61° ENE 21:23:11 10° N
SL-16 R/B 3.6 21:14:35 10° SE 21:18:33 20° E 21:22:33 10° NE
Cosmos 1538 Rocket 4.4 21:13:44 10° NNW 21:18:55 53° ENE 21:24:01 10° SE
Cosmos 1515 4.3 21:17:24 10° SSW 21:21:07 58° WNW 21:24:52 10° N
Cosmos 1733 Rocket 4.0 21:19:22 10° N 21:23:30 35° ENE 21:27:36 10° SE
Helios 1A Rocket 2.9 21:19:42 10° SSE 21:23:42 87° E 21:27:45 10° NNW
Cosmos 1340 3.5 21:27:41 10° SSW 21:31:21 53° WNW 21:35:02 10° N
Meteor 1-27 Rocket 4.3 21:26:00 10° SSW 21:31:47 66° WNW 21:37:40 10° N
SJ 16-02 1.4 21:28:43 10° S 21:33:01 61° ESE 21:37:21 10° NNE
Meteor 1-18 Rocket 4.5 21:28:21 10° S 21:33:51 53° E 21:39:17 10° NNE
Cosmos 2292 Rocket 2.6 21:32:20 10° N 21:35:27 69° ENE 21:38:15 11° SSE
Cosmos 2278 3.9 21:33:11 10° S 21:38:40 54° ESE 21:44:13 10° NE
Cosmos 2034 Rocket 4.1 21:32:31 10° S 21:38:51 89° W 21:45:16 10° N
ASTRO F (AKARI) 4.2 21:37:45 11° SSE 21:40:43 81° ENE 21:43:55 10° NNW
BREEZE M DEB (TANK) 4.3 21:36:58 10° W 21:40:53 42° SSW 21:53:27 10° SE
Meteor 2-21 Rocket 4.5 21:34:51 10° NNW 21:40:59 90° W 21:47:07 10° S
BREEZE-M DEB (TANK) 4.4 21:37:40 10° WSW 21:41:51 67° S 21:57:48 10° E
Cosmos 1726 4.4 21:40:09 10° NNE 21:42:09 14° ENE 21:44:09 10° E
Cosmos 2263 Rocket 2.5 21:38:10 10° NW 21:43:40 60° WSW 21:49:07 10° SSE
Cosmos 2360 Rocket 3.9 21:40:46 10° SE 21:43:50 15° E 21:46:55 10° ENE
Ariane Rocket 4.5 21:42:58 10° SSW 21:47:31 33° W 21:52:07 10° NNW
NOSS 2-1 (C) 4.1 21:46:44 10° S 21:49:11 21° ESE 21:51:41 10° ENE
SPOT 5 3.3 21:46:10 10° S 21:51:25 69° WSW 21:56:31 10° NNW
Terra 1.8 21:47:57 11° SSE 21:52:37 90° WNW 21:57:25 10° NNW
Cosmos 1441 Rocket 4.5 21:51:03 13° SE 21:53:29 24° E 21:56:31 10° NE
Resurs 01 Rocket 3.9 21:50:37 10° SW 21:53:53 20° W 21:57:10 10° NW
Cosmos 1346 Rocket 3.2 21:50:23 11° SSE 21:54:03 45° E 21:57:53 10° NNE
Cosmos 2278 Rocket 4.5 21:54:05 10° NNW 21:58:02 19° NNE 22:02:00 10° ENE
Cosmos 1680 Rocket 4.3 21:53:33 10° NNW 21:58:38 43° NE 22:03:25 11° SE
Cosmos 2279 Rocket 4.4 21:53:29 11° SSE 21:59:08 47° E 22:05:04 10° NNE
NOSS 2-1 (D) 3.8 21:56:58 11° S 21:59:35 25° SE 22:02:19 10° ENE
Aureole 1 Rocket 4.4 21:58:54 10° WSW 22:01:33 27° NW 22:04:12 10° N
Iridium 2 4.2 21:57:58 10° N 22:01:36 45° E 22:04:23 16° SSE
Cosmos 1818 4.0 22:01:18 10° NW 22:06:44 59° NE 22:12:07 10° ESE
Iridium 4 Rocket 4.5 22:06:20 10° NNE 22:10:16 28° ENE 22:13:44 14° SE
SL-24 R/B - RUBIN 2 4.3 22:07:57 10° NW 22:12:06 42° SW 22:15:32 15° S
Cosmos 2228 Rocket 3.6 22:08:07 10° SSW 22:12:39 62° WNW 22:17:10 10° N
ISS -2.1 22:10:24 10° W 22:12:55 20° SSW 22:14:21 16° S
Cosmos 1378 3.3 22:09:24 10° SSW 22:13:03 71° WNW 22:16:43 10° N
Cosmos 1980 Rocket 2.7 22:08:34 10° SW 22:14:11 64° NW 22:19:51 10° NNE
Okean 1-7 4.3 22:17:25 15° SE 22:20:01 26° E 22:23:41 10° NNE
Cosmos 1777 Rocket 4.2 22:16:23 10° SSW 22:21:36 77° WNW 22:26:54 10° NNE
Cosmos 2322 Rocket 2.7 22:18:02 13° S 22:22:38 41° ESE 22:27:52 10° NE
Cosmos 1844 Rocket 2.8 22:17:46 10° NNW 22:23:23 73° NE 22:27:56 16° SE
Cosmos 1805 3.3 22:21:55 10° N 22:25:48 69° ENE 22:28:28 19° SSE
RESURS DK-1 2.8 22:22:43 10° SW 22:26:50 66° NW 22:30:57 10° NNE
Cosmos 2333 Rocket 3.7 22:25:18 14° SE 22:27:54 19° E 22:31:43 10° ENE
Meteor 2-4 Rocket 3.9 22:23:23 10° SSW 22:29:10 78° WNW 22:34:49 10° NNE
Cosmos 1461 4.2 22:25:29 10° NW 22:29:17 36° NE 22:33:12 10° ESE
BREEZE-M DEB (TANK) 3.3 22:28:29 10° WSW 22:30:36 23° SSW 22:31:52 19° SSE
ATLAS 2AS CENTAUR R/B 3.0 22:25:37 10° SW 22:33:26 90° NW 22:40:56 10° NE
ATLAS CENTAUR R/B 2.0 22:28:51 10° NW 22:33:46 68° NE 22:37:50 14° SE
ARIANE 5 R/B 3.4 22:31:11 13° S 22:34:58 46° W 22:39:20 10° NNW
Cosmos 1707 Rocket 4.0 22:31:35 10° SSW 22:35:59 64° WNW 22:40:22 10° N
Cosmos 1733 3.1 22:35:09 10° NNW 22:38:58 85° W 22:41:23 21° S
USA 267 3.4 22:32:40 10° ESE 22:39:14 80° NNE 22:45:48 10° WNW
Cosmos 1766 3.6 22:37:05 10° N 22:40:58 55° ENE 22:43:23 21° SSE
Cosmos 1634 Rocket 4.3 22:35:38 10° SSW 22:41:48 66° WNW 22:47:59 10° N
CSL-04 DEB 4.4 22:41:43 10° NNE 22:45:41 79° WNW 22:49:14 13° SSW
Cosmos 1844 3.8 22:41:16 10° NNW 22:47:08 89° ENE 22:51:27 19° SSE
Cosmos 2219 Rocket 3.7 22:44:47 15° SE 22:47:13 20° E 22:51:08 10° NE
Meteor 2-15 Rocket 4.5 22:44:07 12° SSW 22:49:51 84° W 22:55:59 10° N
Cosmos 1703 Rocket 4.0 22:48:16 21° SSE 22:50:54 46° E 22:55:09 10° NNE
Meteor 1-4 Rocket 2.9 22:48:06 10° NNW 22:51:31 53° W 22:53:35 21° SSW
Cosmos 2344 4.0 22:44:46 10° WSW 22:52:05 67° NNW 23:00:20 10° NE
ATLAS 3B R/B 3.4 22:48:18 10° NW 22:55:14 47° WSW 23:00:39 18° S
NOSS 2-1 (E) 2.6 22:55:32 10° SW 22:58:43 80° SE 23:02:06 10° NE
NOSS 3-1 (A) 4.3 22:51:56 10° NW 22:58:52 67° NE 23:07:13 10° ESE
Cosmos 1655 Rocket 4.0 22:53:19 10° N 22:59:37 88° E 23:04:10 20° S
GENESIS II 4.2 22:57:21 10° SW 23:01:13 81° NW 23:05:12 10° NE
Cosmos 1733 Rocket 4.5 22:57:17 10° NNW 23:01:15 32° W 23:04:49 12° SSW
SL-16 R/B 2.2 22:56:16 10° SSW 23:01:57 87° WNW 23:07:41 10° NNE
Cosmos 1782 Rocket 3.7 22:57:51 10° N 23:02:12 65° ENE 23:04:50 23° SSE
Cosmos 2237 4.2 22:58:24 12° SSW 23:03:37 72° ESE 23:09:21 10° NE
SAR-Lupe-4 4.3 23:01:09 10° N 23:04:39 51° WNW 23:07:39 13° SW
Meteor 2-10 4.2 23:00:01 10° NNW 23:05:19 68° W 23:08:49 20° S
CZ-4C R/B 3.1 22:58:45 10° NW 23:05:33 75° NE 23:13:47 10° SE
ERS-2 3.6 23:02:44 10° NE 23:05:41 23° E 23:06:52 19° SE
NOSS 3-1 (C) 4.0 22:59:08 10° NW 23:06:17 89° SW 23:14:03 13° SE
Cosmos 1356 3.6 23:08:13 21° SSW 23:10:16 63° WNW 23:13:34 10° N
SJ 16-02 3.7 23:08:26 10° WSW 23:11:57 23° NW 23:15:29 10° N
Cosmos 1908 Rocket 3.8 23:08:50 10° NNW 23:13:07 59° W 23:15:46 22° S
Meteor 1-15 Rocket 4.3 23:10:54 10° NNW 23:16:33 76° W 23:20:25 21° S
Cosmos 1470 3.1 23:13:11 10° N 23:17:01 56° ENE 23:19:01 25° SE
Cosmos 1726 2.2 23:13:56 10° NNW 23:17:36 68° W 23:19:26 27° S
Cosmos 1300 Rocket 4.0 23:14:03 10° N 23:18:19 53° ENE 23:20:51 23° SE
COSMOS 2428 4.0 23:17:53 18° SE 23:20:27 25° ESE 23:25:01 10° NE
Cosmos 2242 Rocket 3.6 23:21:24 24° S 23:24:06 74° E 23:28:39 10° NNE
Cosmos 1242 Rocket 3.7 23:20:52 10° N 23:24:12 34° ENE 23:26:07 20° ESE
ALOS 2 2.6 23:22:00 24° SSE 23:24:35 76° ENE 23:28:59 10° NNW
Okean 2 Rocket 4.2 23:20:56 10° N 23:25:09 37° ENE 23:28:05 18° SE
Cosmos 1937 Rocket 3.6 23:22:46 22° S 23:26:09 63° ESE 23:31:24 10° NNE
Cosmos 2263 Rocket 4.5 23:24:46 10° WNW 23:26:25 11° W 23:28:05 10° WSW
Cosmos 2360 Rocket 2.2 23:22:25 17° SSW 23:26:52 75° ESE 23:32:32 10° NE
Cosmos 1943 Rocket 4.5 23:22:35 10° NNW 23:26:56 22° NNE 23:31:16 10° E
Terra 4.2 23:28:23 10° WSW 23:31:04 15° W 23:33:45 10° NW
Cosmos 2266 Rocket 4.3 23:25:24 10° NNW 23:31:33 58° W 23:35:54 19° SSW
Cosmos 2333 4.4 23:29:02 22° S 23:32:28 53° ESE 23:37:57 10° NE
Cosmos 1626 3.8 23:37:36 18° ESE 23:38:59 22° E 23:41:53 10° NE
NOSS 2-1 (C) 4.0 23:36:09 10° WSW 23:39:14 44° NW 23:42:34 10° NE
Cosmos 1680 Rocket 4.4 23:35:50 10° NW 23:40:43 38° WSW 23:43:44 21° SSW
Cosmos 1842 3.2 23:38:57 29° S 23:40:52 85° E 23:44:47 10° NNE
Meteor 2-17 Rocket 4.5 23:35:29 10° NNW 23:41:41 89° W 23:45:46 23° S
Cosmos 1953 4.2 23:38:40 10° NNE 23:41:58 23° ENE 23:44:46 12° ESE
Cosmos 2278 Rocket 2.9 23:37:54 10° NNW 23:43:29 52° NE 23:48:51 11° SE
USA 215 3.4 23:38:15 10° ENE 23:44:38 53° SE 23:51:00 10° SW
Spot 4 4.4 23:46:20 22° SSW 23:49:04 46° W 23:53:43 10° NNW
NOSS 2-1 (D) 4.3 23:46:45 10° WSW 23:49:45 37° NNW 23:53:03 10° NE
Cosmos 1818 4.4 23:45:10 10° NW 23:50:09 37° WSW 23:52:45 23° SSW
Iridium 4 Rocket 4.1 23:46:05 10° NNW 23:50:22 42° W 23:53:30 19° SSW
Sich 1 Rocket 3.6 23:47:11 10° N 23:51:36 75° ENE 23:54:00 27° SSE
Cosmos 1674 3.6 23:50:45 25° SE 23:52:13 35° E 23:55:41 10° NNE
